Flag for Turkey Weather past 2 weeks in Bursa, Turkey

Now
53 °F

Passing clouds.


Feels Like: 53 °F
Forecast: 45 / 74 °F
Wind: 2 mph from Northeast

Location: Bursa

Current Time: Apr 26, 2015 at 4:41:18 AM

Latest Report: Apr 26, 2015 at 3:00 AM


Visibility: 7 mi

Pressure: 30.08 "Hg

Humidity: 91%

Dew point: 51 °F

Location of BursaLocation

Historic Weather in Bursa — Graph

°F

Bursa temperature yesterday

Maximum temperature yesterday: 70 °F (at 3:00 PM)
Minimum temperature yesterday: 44 °F (at 6:00 AM)
Average temperature yesterday: 60 °F

Past Weeks' High & Low Weather Summary

 TemperatureHumidityPressure
High77 °F (Apr 18, 2:00 PM)99% (Apr 22, 5:00 AM)30.35 "Hg (Apr 22, 5:00 AM)
Low31 °F (Apr 11, 7:00 AM)32% (Apr 17, 2:00 PM)29.86 "Hg (Apr 18, 7:00 PM)
Average54 °F67%30.13 "Hg
* Reported Apr 11 3:00 AM — Apr 26 3:00 AM, Bursa, Weather by CustomWeather, © 2015

Note: Actual official high and low records may vary slightly from our data, if they occured in-between our weather recording intervals... More about our weather records

Advertising

Bursa weather history for previous 24 hours

 ConditionsComfort  
Time TempWeatherWind HumidityBarometerVisibility
3:00 AM
Sun, Apr 26
53 °FPassing clouds.2 mph91%30.08 "Hg7 mi
12:00 AM55 °FPassing clouds.1 mph84%30.13 "Hg7 mi
9:00 PM
Sat, Apr 25
58 °FPassing clouds.3 mph68%30.14 "Hg7 mi
8:00 PM59 °FPassing clouds.3 mph70%30.13 "Hg9 mi
7:00 PM60 °FPartly sunny.9 mph60%30.14 "Hg9 mi
6:00 PM63 °FPartly sunny.9 mph56%30.12 "Hg9 mi
5:00 PM66 °FPartly sunny.12 mph51%30.11 "Hg9 mi
4:00 PM68 °FPartly sunny.6 mph45%30.10 "Hg9 mi
3:00 PM70 °FPartly sunny.8 mph47%30.11 "Hg9 mi
2:00 PM69 °FPartly sunny.6 mph44%30.12 "Hg9 mi
1:00 PM69 °FPartly sunny.2 mph35%30.14 "Hg9 mi
12:00 PM66 °FPartly sunny.2 mph40%30.15 "Hg9 mi
11:00 AM62 °FPartly sunny.3 mph45%30.16 "Hg9 mi
10:00 AM58 °FPartly sunny.5 mph55%30.16 "Hg9 mi
9:00 AM54 °FPartly sunny.5 mph59%30.16 "Hg9 mi
6:00 AM44 °FPassing clouds.2 mph92%30.15 "Hg9 mi
Weather by CustomWeather, © 2015

See weather overviewHow to use our weather pages